Regional Weather Roundup
Issued by NWS

Home | Current Version | Previous Version | Graphics & Text | Print | Product List | Glossary On
Versions: 1 2 3 4 5 6 7 8 9 10 11 12 13 14 15 16 17 18 19 20 21 22 23 24 25 26 27 28 29 30 31 32 33 34 35 36 37 38 39 40 41 42 43 44 45 46 47 48 49 50
000
ASUS45 KPSR 171710
RWRAZ

ARIZONA REGIONAL HOURLY WEATHER ROUNDUP
NATIONAL WEATHER SERVICE PHOENIX AZ
1000 AM MST WED DEC 17 2014

NOTE: FAIR INDICATES FEW OR NO CLOUDS BELOW 12,000 FEET WITH NO
SIGNIFICANT WEATHER AND/OR OBSTRUCTIONS TO VISIBILITY.

AZZ001>003-036-171800-
NORTHWEST ARIZONA

CITY           SKY/WX    TMP DP  RH WIND       PRES   REMARKS
BULLHEAD CITY  CLOUDY    54  45  71 S3        30.07R
KINGMAN        CLOUDY    43  37  79 CALM      30.05R
$$

AZZ004>008-015-016-018-171800-
NORTH CENTRAL ARIZONA

CITY           SKY/WX    TMP DP  RH WIND       PRES   REMARKS
GRAND CANYON   LGT SNOW  31  29  92 SW5       30.03R VSB 3/4 WCI  26
PRESCOTT       CLOUDY    38  33  82 S5        30.06R WCI  34
FLAGSTAFF      LGT SNOW  30  28  92 SW10      30.02R FOG     WCI  21
PAYSON         CLOUDY    36  34  93 NW5       30.09R FOG     WCI  32
PAGE           LGT RAIN  41  33  73 CALM      30.02R
$$

AZZ009>014-017-171800-
NORTHEAST ARIZONA

CITY           SKY/WX    TMP DP  RH WIND       PRES   REMARKS
WINSLOW        CLOUDY    37  35  92 SE3       30.05R
SAINT JOHNS    LGT RAIN  37  35  92 E5        30.03R WCI  33
WINDOW ROCK    LGT SNOW  35  31  85 S6        30.02R FOG     WCI  30
SHOW LOW       CLOUDY    32  32 100 S13       30.06R FOG     WCI  22
$$

AZZ023-171800-
GREATER PHOENIX AREA

CITY           SKY/WX    TMP DP  RH WIND       PRES   REMARKS
PHOENIX        CLOUDY    54  49  83 SE7       30.08R
BUCKEYE          N/A     54  48  82 SE6       30.10R
GLENDALE       PTSUNNY   54  52  94 CALM      30.11R
LUKE AFB       PTSUNNY   54  51  92 S6        30.08R
DEER VALLEY    CLOUDY    51  46  83 SE5       30.08R
SCOTTSDALE     LGT RAIN  52  46  80 SE5       30.10R
MESA-GATEWAY   CLOUDY    52  46  82 SE6       30.11R
CHANDLER       PTSUNNY   54  50  87 SE7       30.09R
$$

AZZ027-028-171800-
SOUTHWEST MARICOPA COUNTY AND PINAL COUNTY

CITY           SKY/WX    TMP DP  RH WIND       PRES   REMARKS
CASA GRANDE    CLOUDY    52  48  87 CALM      30.10R
GILA BEND      PTSUNNY   58  48  69 CALM      30.10R
$$

AZZ503-504-507>509-171800-
SOUTHEAST ARIZONA

CITY           SKY/WX    TMP DP  RH WIND       PRES   REMARKS
TUCSON         PTSUNNY   53  46  77 NE3       30.12R
DAVIS-MONTHAN  MOSUNNY   50  47  89 NE6       30.10R
RYAN FIELD       N/A     55  50  82 E9        30.11
NOGALES        LGT RAIN  47  43  86 SE7       30.13S
SIERRA VISTA   PTSUNNY   48  37  66 SW13G23   30.12R
DOUGLAS        CLOUDY    50  36  58 SW13      30.14R
SAFFORD        LGT RAIN  46  42  86 CALM      30.08R
$$

AZZ020-021-025-026-031-171800-
SOUTHWEST ARIZONA

CITY           SKY/WX    TMP DP  RH WIND       PRES   REMARKS
YUMA           PTSUNNY  N/A N/A N/A NE5       30.08R
$$

CAZ031-033-041-043-047-048-061-171800-
SOUTHERN CALIFORNIA

CITY           SKY/WX    TMP DP  RH WIND       PRES   REMARKS
DOWNTOWN L.A.  SUNNY     57  49  74 VRB3      30.04R
L.A. AIRPORT   MOSUNNY   56  50  80 E3        30.04R
SAN DIEGO      MOSUNNY   59  54  83 SE6       30.08R
BURBANK        SUNNY     54  49  83 CALM      30.03R
ONTARIO        LGT RAIN  51  47  86 E6        30.04R
RIVERSIDE      CLOUDY    53  48  83 N3        30.05R
PALM SPRINGS   CLOUDY    53  50  89 CALM      30.09R FOG
EL CENTRO NAS  PTSUNNY   51  49  92 E9        30.07S FOG
IMPERIAL       LGT RAIN  51  49  92 E5        30.08R
BLYTHE         LGT RAIN  51  50  96 CALM      30.08R FOG
NEEDLES        CLOUDY    53  45  74 E3        30.06R
$$

NVZ020-UTZ003-171800-
SOUTHERN NEVADA-UTAH

CITY           SKY/WX    TMP DP  RH WIND       PRES   REMARKS
LAS VEGAS      CLOUDY    48  41  76 S8        30.00R
SALT LAKE CITY MOSUNNY   34  31  88 CALM      30.01R
$$

NMZ009-TXZ055-171800-
NEW MEXICO-WEST TEXAS

CITY           SKY/WX    TMP DP  RH WIND       PRES   REMARKS
ALBUQUERQUE    PTSUNNY   36  34  92 NW3       30.04S
EL PASO        MOSUNNY   55  35  47 SW18G25   30.08R
$$


........................KEY........................
SKY/WX - SKY CONDITION/WEATHER
TMP    - TEMPERATURE IN FAHRENHEIT
DP     - DEW POINT IN FAHRENHEIT
RH     - RELATIVE HUMIDITY IN PERCENT
WIND   - DIRECTION AND SPEED IN MILES PER HOUR (MPH)
VRB    - VARIABLE WIND DIRECTION
PRES   - MEAN SEA LEVEL PRESSURE IN INCHES OF MERCURY
         F - FALLING PRESSURE   R - RISING PRESSURE
         S - STEADY PRESSURE
VSB    - VISIBILITY IN MILES
HX     - HEAT INDEX IN FAHRENHEIT
WCI    - WIND CHILL INDEX IN FAHRENHEIT
TC     - TEMPERATURE IN CELSIUS WHICH IS ALSO KNOWN AS
         TEMPERATURE IN CENTIGRADE
AFB    - AIR FORCE BASE
         LUKE AFB IS LUKE AIR FORCE BASE
         DAVIS-MONTHAN IS DAVIS-MONTHAN AIR FORCE BASE
NAS    - NAVAL AIR STATION
         EL CENTRO NAS IS EL CENTRO NAVAL AIR STATION
N/A    - NOT AVAILABLE



USA.gov is the U.S. government's official web portal to all federal, state and local government web resources and services.